CZ-4 DEB, 26142

Orbit data source: Space-Track

CZ-4 DEB, 26142 is space debris in SSO originally from a launch on Thu, 14 Oct 1999 UTC launched from the Taiyaun Space Center, China (TSC). Debris objects in space refer to the collection of defunct objects orbiting the Earth. Examples of debris include non-operational satellites, rocket bodies, and fragments generated from explosions, collisions, or faulty payload assembly.

Loading next visibility...
Identifier
26142, 1999-057AE
Orbit
SSO
Last TLE update
22 hours ago
Origin
Manufacturer
Unknown
Mission
Spacecraft
Bus & Motor
Unknown
Mass
Unknown
Launch date (UTC)
1999-10-14 (26 years ago)
Launch vehicle
Unknown
Launch site
Taiyaun Space Center, China (TSC)
Object type
Payload
Rocket body
Debris
Shape & HBR
Unknown
Radar Cross Section
Small (<0.1 m²)

Expand to show TLE details & history

TLE from 22 hours ago
0 CZ-4 DEB
1 26142U 99057AE  25191.47668214  .00000469  00000-0  30482-3 0  9990
2 26142  98.7670  89.1968 0298355 352.1190 185.4158 13.87384946277021
Epoch: 2025-07-10T11:26Z
TLE epoch observation values (Epoch: 2025-07-10T11:26:25.336Z)
Latitude
2.64692°
Longitude
169.35526°
Altitude
1,157.773 km
Speed
7.166 km/s
True Right ascension
17h 58m 24s
True Declination
2° 37' 55"
Sunlit
Object was in full shadow at epoch
Visualization orbit readout
Latitude
65.9789°
Longitude
-170.04591°
Altitude
1,063.226 km
Speed
7.269 km/s
Apparent Right ascension
12h 21m 57s
Apparent Declination
40° 38' 24"
Sunlit
Object is in daylight
Visualization observer readout
Local Sidereal Time
21:54:36
Azimuth
332.906° NNW
Elevation
-2.745°
Doppler factor
1
Orbital elements
Apogee altitude
1,153.202 km
Perigee altitude
716.819 km
Semi-major axis
7,313.148 km
Eccentricity
0.02984
Inclination
98.767°
RAAN
89.1968°
Arg. of periapsis
352.119°
True anomaly
Unknown
Mean anomaly
185.4158°
Eccentric anomaly
Unknown
Mean motion
3.47046 °/min
Orbital period
103.73 mins
BSTAR
0.00030482
Loading maneuver chart data...
Loading SW <> Apogee altitude chart data...
Loading historical data...
Loading historical data...
Loading historical data...
Loading historical data...
Loading historical data...
Loading historical data...
Loading historical data...

CZ-4 DEB Visibility forecast

Observer location: undefined°, undefined°

Span
Click to sort rows by Start time (UTC) header in descending order
Start Az.
Max El. time (UTC)
Max El. Az.
Max El.
End time (UTC)
End Az.
8 mins2025-07-11 16:08:52.485Z117.057° SE2025-07-11 16:12:52.485Z60.95° ENE23.71°2025-07-11 16:16:52.485Z11.233° NNE
8 mins2025-07-11 17:51:52.485Z206.623° SW2025-07-11 17:54:52.485Z259.638° W30.413°2025-07-11 17:59:52.485Z329.381° NNW
8 mins2025-07-12 04:44:52.485Z57.166° ENE2025-07-12 04:47:52.485Z89.316° E20.582°2025-07-12 04:52:52.485Z137.977° SSE
11 mins2025-07-12 06:25:52.485Z5.281° NNE2025-07-12 06:30:52.485Z289.353° WNW42.704°2025-07-12 06:36:52.485Z208.271° SW
|